RH
9 8 7 14 18 22 27 31 29 26 22 20 18 16 15 13 12 12 11 11 10 11 11 12 14 32 82 76 24 12 18 22 25 28 30 55 58 49 58 56 46 57 47 43 40 37 37
7 9 17 21 26 32 36 34 29 24 21 21 16 12 10 8 8 7 8 8 9 11 10 11 18 52 96 97 24 20 22 24 26 37 44 57 48 42 43 44 49 39 41 40 37 39 39
9 18 23 30 38 36 30 26 23 25 31 44 47 8 5 3 3 2 2 2 5 9 9 15 24 44 99 51 30 37 40 43 44 40 49 52 42 43 37 42 34 38 45 40 41 37 42
18 24 32 42 38 27 22 15 12 26 60 72 14 14 5 3 3 3 2 2 7 10 22 31 50 90 78 36 38 31 32 56 56 64 62 51 50 49 42 36 40 40 41 52 34 36 37
26 33 35 35 25 15 13 20 45 47 76 63 16 8 6 3 3 2 1 6 6 18 52 65 76 93 80 52 45 39 38 43 55 64 60 61 53 53 44 54 62 56 50 50 44 32 33
36 37 30 20 11 9 19 36 49 54 52 27 13 13 12 6 4 4 4 8 15 28 61 74 95 91 59 56 39 45 44 38 62 79 88 75 67 60 63 61 58 45 62 46 43 36 39
37 29 15 10 9 12 44 37 31 21 30 28 27 30 29 26 19 34 18 14 20 30 43 60 55 80 44 56 48 38 42 43 52 72 90 55 75 81 59 52 46 41 44 44 38 31 33
26 12 8 8 8 15 38 38 21 34 33 30 24 19 19 25 41 37 52 73 98 92 92 52 61 70 59 65 62 42 46 47 68 86 60 70 84 58 50 53 54 52 54 49 41 32 38
11 9 9 9 9 9 14 22 30 36 27 23 22 13 20 28 40 35 54 82 100 98 88 63 57 57 44 54 60 49 55 50 59 76 73 80 65 48 52 52 60 61 63 56 52 37 38
8 9 11 14 10 11 19 29 36 24 20 18 34 37 25 26 34 40 55 53 93 96 82 42 62 46 36 40 56 38 30 54 52 64 67 75 58 61 62 64 57 67 46 48 52 55 60
8 9 24 17 12 15 24 25 19 18 17 20 31 30 37 34 49 52 52 52 81 96 34 57 54 39 40 41 42 36 29 34 65 77 82 80 82 81 84 67 55 64 48 49 52 58 59
8 9 12 14 16 20 20 17 11 9 9 13 28 21 30 36 54 58 50 62 85 63 56 70 54 50 50 42 41 42 32 39 52 71 70 71 48 58 72 62 56 65 76 73 66 61 94
10 10 17 17 21 22 19 14 10 8 8 9 21 22 33 28 42 46 51 84 51 64 59 74 67 54 59 55 48 53 50 91 92 93 74 63 55 56 46 63 60 67 92 94 94 95 89
10 12 17 21 22 17 14 11 10 9 9 9 10 18 23 15 19 19 50 58 59 68 86 59 56 58 62 58 57 64 62 61 82 87 96 94 65 57 35 71 93 80 97 96 93 90 74
12 16 18 20 16 14 12 12 12 12 11 9 10 13 11 10 10 12 47 89 94 79 65 69 64 70 67 57 69 68 69 72 80 77 83 97 73 43 43 31 34 70 93 98 97 93 89
14 25 19 16 15 14 14 14 14 14 14 12 12 15 18 20 17 12 66 76 73 65 61 63 78 67 89 77 84 82 76 56 56 79 75 84 95 57 41 41 45 42 55 86 88 95 91
17 18 16 15 15 16 15 16 16 16 16 13 15 21 32 23 20 32 86 81 70 55 56 67 68 77 79 92 84 86 78 62 67 72 76 80 95 68 60 45 55 76 91 94 97 95 94
16 14 16 16 16 17 20 22 23 21 18 15 26 35 37 25 52 84 80 73 65 68 54 62 62 70 75 87 95 91 89 72 62 75 85 77 97 99 71 47 76 77 90 96 95 87 95
15 16 16 16 19 23 26 31 34 34 32 44 54 55 41 41 76 89 80 81 71 65 62 65 73 62 66 82 95 86 86 62 60 73 84 78 91 96 63 39 62 82 78 85 91 96 96
16 17 19 23 26 25 29 32 33 43 40 47 61 84 56 61 76 84 96 89 80 60 67 65 71 70 78 82 76 93 75 65 62 63 58 79 98 96 92 68 74 93 80 71 88 96 94
19 22 23 26 22 24 27 31 32 34 45 51 69 93 88 96 86 87 91 92 86 79 75 76 82 78 96 94 86 84 74 70 62 59 66 74 100 90 81 83 90 90 86 81 85 93 94
21 24 22 22 24 25 30 32 32 32 44 66 71 84 87 86 90 95 85 91 82 76 93 85 90 78 82 95 86 95 88 78 80 77 80 94 91 92 94 90 85 94 88 88 90 89 92
25 20 20 21 28 33 28 34 45 64 67 85 88 81 88 82 90 94 88 75 80 78 80 76 92 98 94 80 83 79 83 85 85 93 94 96 96 96 96 86 90 88 97 89 90 91 94
22 20 19 21 26 33 36 42 89 99 99 98 99 97 99 95 98 83 72 73 81 82 96 91 88 96 75 64 77 80 86 98 94 94 79 96 97 97 96 95 100 95 93 92 93 93 92
20 20 19 21 28 36 61 99 100 99 99 99 97 96 89 97 96 81 86 97 92 96 96 93 81 72 72 88 90 90 79 77 95 74 75 76 97 98 95 97 92 93 92 95 97 97 96
19 17 19 20 25 28 44 93 99 98 98 97 83 100 100 99 95 98 96 93 97 93 88 80 57 71 66 97 96 95 97 92 89 74 52 74 72 89 96 98 100 96 85 97 97 99 94
20 22 23 21 13 7 10 50 96 100 97 92 81 98 94 95 97 95 95 97 91 89 98 82 83 83 69 95 96 99 98 94 98 99 96 85 89 94 98 100 100 95 96 98 100 99 97
25 24 14 4 4 4 8 37 97 100 93 83 91 94 91 84 98 97 95 98 94 96 98 77 83 79 88 93 98 99 97 99 94 98 100 99 100 100 94 97 98 90 80 87 97 97 100
20 6 3 3 4 7 12 74 100 84 72 68 83 89 98 83 95 92 82 79 76 72 99 94 98 95 97 97 95 94 93 90 93 100 80 97 99 100 95 96 100 100 100 99 100 100 100
Wind_Speed
15 16 17 18 19 20 20 21 21 22 22 22 22 23 23 23 23 24 25 26 27 28 28 28 26 20 14 9 24 19 17 16 15 10 21 31 25 21 10 7 7 12 8 16 26 32 26
15 16 16 17 19 20 21 22 22 22 22 23 23 22 24 25 26 26 25 24 25 26 29 31 24 14 10 7 11 10 10 10 14 17 24 32 21 28 12 6 15 5 19 24 24 22 16
16 17 18 19 20 21 21 22 22 23 24 25 28 28 28 31 29 28 27 25 22 26 28 22 17 12 12 27 17 12 6 6 8 15 23 30 26 23 11 3 19 12 14 13 9 7 8
16 18 19 19 21 22 22 23 25 25 27 27 30 30 31 32 33 35 34 26 22 25 17 14 10 6 10 11 14 13 15 11 10 16 24 19 29 17 7 5 4 3 3 4 7 16 8
18 19 19 20 21 22 23 24 24 25 26 28 30 32 34 33 33 35 34 27 24 15 8 7 4 3 12 10 12 12 11 16 14 12 16 20 18 20 5 3 5 5 15 15 5 7 7
17 18 20 21 21 22 23 24 25 26 28 31 32 33 35 34 32 33 30 25 10 8 8 4 6 5 4 13 24 13 14 12 12 9 8 10 10 5 7 8 20 19 14 5 9 8 10
17 19 19 21 22 22 22 24 27 28 28 29 31 34 34 32 28 24 33 15 7 3 3 7 22 14 25 18 19 20 14 10 11 8 7 5 6 18 18 23 23 13 9 18 2 5 6
18 18 19 21 23 22 24 25 26 25 26 29 33 34 34 29 15 24 20 16 10 11 12 10 7 7 13 12 10 23 5 5 7 9 2 5 18 8 5 9 16 20 22 31 10 4 3
17 20 20 20 22 24 23 23 24 24 27 31 34 31 28 23 10 21 20 24 12 6 5 10 3 9 16 14 8 18 16 7 4 4 6 16 10 3 3 15 13 18 23 21 18 4 8
18 19 19 19 21 23 23 21 21 23 27 30 27 26 27 26 8 27 16 27 13 3 3 4 5 9 23 19 2 21 27 7 3 6 8 12 13 20 21 21 8 22 13 17 17 8 15
18 17 17 19 20 21 19 19 20 24 28 28 23 26 26 26 16 26 26 24 7 0 4 7 5 9 20 12 14 18 21 10 5 6 3 5 13 17 13 7 7 24 8 14 15 13 12
17 17 17 18 18 17 17 18 21 25 28 28 21 25 25 27 25 31 25 12 2 3 6 7 5 10 12 11 8 14 19 13 7 4 4 3 14 5 12 14 11 17 13 12 11 12 8
15 17 17 15 14 15 17 19 22 24 27 26 19 21 20 26 31 28 23 2 4 3 10 8 8 13 11 10 6 7 10 6 4 7 8 8 5 2 14 16 12 8 4 3 5 5 7
14 14 13 13 13 15 18 19 21 23 25 26 20 16 18 22 24 26 16 5 6 4 3 6 7 14 4 10 4 8 9 5 1 2 3 4 7 8 10 1 8 16 6 4 5 6 2
12 11 10 11 14 16 18 21 22 24 25 24 20 11 18 21 20 22 6 6 1 2 5 6 12 3 3 8 4 8 6 3 3 1 2 3 5 12 16 13 5 7 6 8 6 13 10
9 9 9 11 13 16 18 21 23 25 26 27 20 11 15 23 16 13 6 3 1 1 5 3 3 3 6 5 5 6 4 5 3 4 2 5 8 6 9 8 1 9 5 6 4 5 7
8 8 10 11 14 16 19 21 23 26 26 26 17 6 12 19 11 12 3 3 3 6 10 3 4 6 5 5 4 4 6 9 4 6 4 5 4 6 6 3 9 8 0 3 1 3 2
6 8 10 13 16 18 20 21 23 25 26 26 13 3 15 16 8 4 2 4 6 5 5 4 4 4 3 3 5 3 6 4 11 3 7 3 2 4 9 15 7 5 5 5 1 4 3
6 8 11 14 16 19 20 21 23 23 23 23 12 6 8 11 3 3 5 4 4 3 5 3 4 3 2 5 6 5 5 5 16 9 5 3 2 3 8 5 3 4 8 7 6 6 3
6 9 12 14 17 19 20 21 22 21 21 18 8 3 6 8 3 2 4 4 4 7 6 4 6 5 5 8 9 7 15 8 12 16 22 7 1 4 7 7 4 5 14 16 5 3 4
7 10 12 15 17 18 20 21 22 21 18 12 7 1 3 4 3 3 2 3 4 5 3 5 3 5 7 7 15 8 6 17 7 17 3 1 5 7 10 5 14 10 12 17 14 12 4
9 11 13 15 17 19 19 20 20 21 19 7 6 5 4 12 9 2 2 4 3 5 3 6 4 12 11 8 12 22 16 16 13 4 1 3 7 3 3 17 22 16 17 11 16 12 9
9 12 14 16 17 18 19 20 20 20 20 6 7 7 7 6 2 2 3 5 8 13 9 17 10 13 7 9 18 37 30 31 19 14 14 5 3 2 2 16 9 10 17 12 12 15 7
11 13 16 16 16 17 20 19 17 17 16 10 10 10 5 4 1 5 9 15 16 18 12 11 13 5 9 36 33 19 5 4 9 12 13 5 4 2 3 3 4 5 9 11 16 15 14
12 13 15 16 17 18 17 16 15 17 17 15 14 7 5 3 10 11 17 10 19 12 6 6 10 23 22 16 5 7 4 3 6 9 14 11 2 3 3 4 5 2 8 6 7 7 11
12 14 16 17 19 20 19 16 15 15 16 15 13 4 8 6 12 19 8 19 5 9 6 5 23 15 18 3 3 2 2 6 6 12 15 13 11 4 4 4 2 3 14 11 6 1 14
12 15 17 19 21 22 20 17 14 10 12 14 8 8 6 9 17 20 8 8 12 9 3 7 19 11 15 4 3 3 3 1 4 5 9 8 6 6 6 4 1 10 17 4 2 3 13
14 17 20 21 20 19 17 15 12 10 12 12 7 8 6 10 18 22 24 17 14 16 3 14 10 6 6 6 3 3 4 4 4 4 4 4 4 4 3 3 1 21 4 4 4 8 11
16 18 18 17 17 16 15 13 11 10 11 11 9 6 3 14 11 22 22 21 19 13 12 8 4 6 5 3 4 4 5 4 4 2 4 4 1 1 2 1 1 8 9 6 6 8 11
Wind_Direction
354 354 351 348 347 346 348 350 346 342 341 338 335 332 329 327 325 323 321 322 321 317 315 314 309 300 289 258 255 272 258 260 269 209 199 194 189 196 190 196 219 241 232 229 235 248 263
350 348 348 348 349 348 348 344 339 338 336 334 333 334 330 329 325 321 319 318 315 311 310 308 306 287 261 258 288 287 269 266 243 218 203 198 206 204 217 213 203 228 222 242 249 250 248
346 345 349 351 351 346 339 335 336 339 339 340 336 338 337 335 333 325 321 322 311 306 304 302 298 269 253 262 286 277 266 233 233 232 212 209 206 191 222 286 247 251 272 271 227 216 235
343 347 351 351 344 338 337 339 342 343 342 341 345 340 338 334 335 329 327 332 318 308 307 311 295 211 254 304 310 301 267 246 232 232 227 233 216 217 204 241 331 255 243 234 202 214 212
349 350 348 342 338 339 341 342 342 340 341 342 344 339 335 335 331 325 325 333 325 312 324 335 346 272 271 335 354 343 317 256 253 239 233 233 222 217 173 157 331 223 251 239 272 187 180
349 345 343 341 339 340 341 341 345 347 348 346 342 338 334 334 330 326 330 338 326 322 342 357 48 313 281 318 311 311 312 291 224 234 226 218 227 220 193 184 225 225 238 250 223 200 201
343 341 342 339 338 340 342 349 353 354 350 347 343 342 341 345 343 343 344 358 357 286 28 324 297 272 302 334 326 282 283 289 238 217 202 210 219 223 223 228 251 284 231 244 184 216 217
339 342 342 339 338 344 351 356 359 356 353 350 346 343 343 349 14 360 7 53 19 322 306 343 334 293 345 337 317 5 307 224 187 221 207 279 248 254 255 245 257 260 264 260 260 187 225
344 339 341 340 344 354 359 0 1 359 355 353 349 353 358 356 28 10 21 18 352 310 274 298 17 8 4 334 344 349 344 305 230 239 221 232 234 47 266 251 243 246 247 265 266 261 254
339 338 344 347 356 359 2 3 5 2 2 356 1 8 6 7 356 356 1 354 339 269 14 325 21 24 1 337 251 351 10 305 295 254 230 251 262 262 269 266 219 261 245 258 261 233 254
337 342 348 352 360 3 8 11 9 6 7 3 6 7 7 7 352 350 337 345 342 147 339 360 7 353 359 32 327 348 5 350 337 309 325 275 332 324 314 269 241 258 205 232 243 231 243
343 349 355 359 3 12 16 13 12 11 11 7 4 3 3 4 352 351 345 343 72 56 252 348 359 341 350 4 352 332 357 6 301 289 264 279 278 265 258 305 302 296 307 304 287 242 229
351 359 1 5 13 14 13 13 11 8 6 5 1 4 9 4 351 347 344 20 25 106 359 355 328 333 322 349 343 5 344 12 13 344 348 315 304 35 37 350 311 4 203 237 221 209 237
356 359 6 14 15 14 13 12 9 5 359 359 354 4 9 3 351 345 351 46 63 4 345 326 327 323 349 4 335 336 344 329 19 351 300 333 325 6 333 158 311 306 252 257 255 206 180
356 4 14 17 16 13 8 4 3 1 357 354 352 339 6 1 355 350 9 52 88 342 333 300 309 323 309 355 303 352 309 262 200 166 129 309 262 323 306 317 269 313 279 319 285 239 258
1 9 18 13 10 7 4 360 357 358 357 354 349 335 2 352 356 358 59 99 6 4 318 292 296 347 312 331 326 346 291 269 323 199 184 269 282 270 311 315 16 329 279 336 328 298 251
16 21 12 6 4 1 359 357 354 353 356 356 347 344 347 352 2 43 75 310 308 309 341 295 285 287 280 315 316 268 277 299 5 334 312 274 226 295 324 328 324 328 42 283 320 277 288
20 17 6 2 358 356 358 355 352 352 353 358 348 4 342 353 45 31 11 307 297 296 309 286 291 246 272 308 282 261 247 232 343 346 315 255 298 269 260 288 143 106 347 306 227 284 246
16 8 1 357 354 355 354 352 354 353 354 357 345 317 342 9 57 343 320 303 273 308 303 305 281 254 316 301 301 245 271 284 328 350 309 316 263 296 312 342 42 21 24 334 281 247 34
8 360 355 352 352 349 349 350 351 355 357 358 356 356 354 54 85 90 337 276 283 289 271 274 273 280 333 304 270 277 288 292 341 301 296 301 317 210 242 254 303 21 24 360 337 313 80
355 350 348 349 348 352 351 352 353 358 2 7 19 42 353 321 352 309 309 288 294 319 276 306 288 280 339 304 308 260 276 303 304 294 286 76 250 233 260 261 84 56 45 36 44 3 36
345 349 350 351 353 355 356 356 1 356 4 21 19 3 307 282 283 276 309 257 277 295 270 288 235 314 307 276 272 294 302 296 287 309 27 280 279 265 278 91 91 60 31 52 33 5 56
357 351 355 354 354 353 359 358 1 0 4 19 348 330 297 276 278 77 243 255 286 297 275 248 303 312 299 283 296 281 279 271 261 295 304 262 276 258 240 144 143 36 7 69 66 30 7
358 1 359 358 355 353 351 355 2 1 7 5 334 319 283 277 206 249 284 288 290 284 269 293 313 276 300 314 308 299 274 336 89 48 21 328 313 260 97 177 44 108 36 73 81 37 21
2 1 357 354 346 343 346 352 350 347 348 351 347 321 302 289 353 336 328 317 312 338 333 292 335 319 320 318 323 340 351 42 100 63 42 28 329 17 86 52 119 70 25 348 6 43 19
357 354 350 345 340 337 334 340 339 340 337 337 360 344 297 303 4 323 336 9 340 346 344 312 333 344 352 17 328 312 344 5 338 342 20 24 31 71 12 97 153 12 332 317 305 159 10
351 346 342 337 335 332 333 337 344 347 341 343 338 335 295 95 22 33 27 344 357 342 310 317 336 330 1 6 20 15 4 336 26 22 343 356 3 40 7 86 110 343 322 10 176 337 355
344 340 337 338 339 342 345 353 6 1 349 344 1 328 21 99 53 52 51 27 9 11 347 308 340 358 346 23 36 346 37 42 78 20 9 34 359 16 334 61 15 349 17 67 297 338 351
341 339 342 346 350 355 1 14 23 360 356 37 62 17 85 98 93 60 56 42 29 4 314 305 302 353 326 357 14 45 35 22 5 42 8 32 73 280 117 264 69 43 69 36 359 340 346